Find Starlink 3354

NORAD ID: 51146 Int'l Des: 2022-005 Owner: SPXS Country: US Constellation: starlink operational
LEOCIRCULAR

当前视图

正在加载3D地球...

About Starlink 3354

Starlink 3354 (NORAD 51146) is a starlink constellation satellite (v1.5) launched Jan 19, 2022 by SPXS of US. It operates in LEO, CIRCULAR orbit with a mass of 297.00 kg.

关于 Starlink 3354

正在加载描述...

即将过境

Passes for default location (London). Set your location on the main map for personalized predictions.

高度历史

Loading altitude history...

两行轨道根数

1 51146U 22005AU 26159.52895086 -.00000405 00000-0 -73600-5 0 9994
2 51146 53.1693 251.2916 0001207 79.9901 280.1226 15.08831750242442
Epoch: Jun 8, 2026 • Age: 14 hours

当前状态

高度 541.6 km
速度 7.59 km/s
星下点 -5.75°S, 57.75°W
发射日期 Jan 19, 2022
运行时间 4.3 years
类型 internet

技术详情

分类 Payload
质量 297.00 kg
干质量 275.00 kg
总质量 297.00 kg
长度 0.20 m
直径 2.80 m
跨度 9.00 m
形状 Box + pan
制造商 SPXS
平台类型 Starlink
阶段状态 In Orbit
所有者/国家 SPXS/US

Most Searched